ATLAS 5 CENTAUR DEB, 46668

Orbit data source: Space-Track

ATLAS 5 CENTAUR DEB, 46668 is space debris in HEO originally from a launch on Wed, 17 Oct 2018 UTC launched from the Air Force Eastern Test Range (AFETR). Debris objects in space refer to the collection of defunct objects orbiting the Earth. Examples of debris include non-operational satellites, rocket bodies, and fragments generated from explosions, collisions, or faulty payload assembly.

Loading next visibility...
Identifier
46668, 2018-079CW
Orbit
HEO
Country
Flag of USUS
Related business
Flag of USUnited Launch Alliance/Lockheed Martin (US)
Manufacturer
ULA Decatur
Mission
Spacecraft
Bus & Motor
Unknown
Mass
Unknown
Launch date (UTC)
2018-10-17 (7 years ago)
Launch vehicle
Unknown
Launch site
Air Force Eastern Test Range (AFETR)
Object type
Payload
Rocket body
Debris
Shape & HBR
Unknown
Radar Cross Section
RCS unknown

Expand to show TLE details & history
Last TLE update: 15 hours ago

TLE from 15 hours ago
0 ATLAS 5 CENTAUR DEB
1 46668U 18079CW  25259.94757279 -.00000192  00000-0  00000-0 0  9991
2 46668  12.9560  57.1565 4642737 274.7137  35.6613  1.83691130 33156
Epoch: 2025-09-16T22:44Z
TLE epoch observation values (Epoch: 2025-09-16T22:44:30.289Z)
Latitude
-0.00001°
Longitude
79.97087°
Altitude
14,879.115 km
Speed
4.832 km/s
True Right ascension
03h 48m 54s
True Declination
0° 00' 00"
Sunlit
Object was in daylight at epoch
Visualization orbit readout
Latitude
Unknown
Longitude
Unknown
Altitude
Unknown
Speed
Unknown
Apparent Right ascension
Unknown
Apparent Declination
Unknown
Sunlit
N/A
Visualization observer readout
Local Sidereal Time
06:33:09
Azimuth
Unknown
Elevation
Unknown
Doppler factor
Unknown
Orbital elements
Apogee altitude
34,863.036 km
Perigee altitude
8,710.559 km
Semi-major axis
28,164.934 km
Eccentricity
0.46427
Inclination
12.956°
RAAN
57.1565°
Arg. of periapsis
274.7137°
True anomaly
85.34725°
Mean anomaly
35.6613°
Eccentric anomaly
58.29162°
Mean motion
0.45918 °/min
Orbital period
784.01 mins
BSTAR
0
Loading maneuver chart data...
Computing Atmospheric mass density...

Documentation

Showing up to 5 results
|